Effective Sunday, March 17, 2024, the National Weather Service National Data Buoy Center will discontinue its Dial-A-Buoy Interactive Voice Response system. For more information, see Service Change Notice 24-06 (PDF).

Station CAMM2 - 8571892 - Cambridge, MD Image indicating link to RSS feed of recent meteorological observations for station CAMM2


Conditions at CAMM2 as of
(5:42 pm EST)
2242 GMT on 02/29/2024:
     

Click on the graph icon in the table below to see a time series plot of the last five days of that observation.

5-day plot - Wind Direction Wind Direction (WDIR):WSW ( 250 deg true )
5-day plot - Wind Speed Wind Speed (WSPD): 4.1 kts
5-day plot - Wind Gust Wind Gust (GST): 5.1 kts
5-day plot - Atmospheric Pressure Atmospheric Pressure (PRES):30.41 in
5-day plot - Air Temperature Air Temperature (ATMP): 45.9 °F
5-day plot - Water Temperature Water Temperature (WTMP): 46.2 °F
5-day plot - Wind Chill Wind Chill (CHILL): 43.5 °F
5-day plot - Wind Speed at 10 Meters Wind Speed at 10 meters (WSPD10M): 3.9 kts
5-day plot - Wind Speed at 20 Meters Wind Speed at 20 meters (WSPD20M): 5.8 kts
5-day plot -  Wind Speed, Wind Gust and Atmospheric Pressure Combined plot of Wind Speed, Gust, and Air Pressure
NOS Water Level Observation Network Water Level
Previous observations
TIME
(EST)
5-day plot - Wind Direction
WDIR
 
5-day plot - Wind Speed
WSPD
kts
5-day plot - Wind Gust
GST
kts
5-day plot - Wave Height
WVHT
ft
5-day plot - Dominant Wave Period
DPD
sec
5-day plot - Average Wave Period
APD
sec
5-day plot - Mean Wave Direction
MWD
 
5-day plot - Atmospheric Pressure
PRES
in
5-day plot - Pressure Tendency
PTDY
in
5-day plot - Air Temperature
ATMP
°F
5-day plot - Water Temperature
WTMP
°F
5-day plot - Dew Point
DEWP
°F
5-day plot - Salinity
SAL
psu
5-day plot - Visibility
VIS
nmi
5-day plot - Tide (above MLLW)
TIDE
ft
2024-02-29 05:36 pmWSW 4.1 6.0----30.41- 46.0 46.2----
2024-02-29 05:30 pm W 2.9 5.1----30.40- 46.4 46.2----
2024-02-29 05:24 pm W 1.9 4.1----30.40- 46.2 46.2----
2024-02-29 05:18 pm NW 2.9 5.1----30.40- 45.5 46.4----
2024-02-29 05:12 pmNNW 2.9 5.1----30.40- 45.1 46.4----
2024-02-29 05:06 pmNNW 2.9 5.1----30.40- 45.0 46.4----
2024-02-29 05:00 pmNNW 4.1 6.0----30.40+0.01 44.8 46.4----
2024-02-29 04:48 pm N 4.1 5.1----30.40- 44.8 46.4----
2024-02-29 04:42 pm N 2.9 6.0----30.40- 45.0 46.4----
2024-02-29 04:36 pm N 5.1 7.0----30.40- 44.6 46.4----
2024-02-29 04:30 pm NE 1.9 5.1----30.40- 44.6 46.6----
2024-02-29 04:24 pmNNW 4.1 6.0----30.40- 44.2 46.6----
2024-02-29 04:18 pmNNW 5.1 8.0----30.40- 43.9 46.6----
2024-02-29 04:12 pmNNW 7.0 8.9----30.40- 43.7 46.6----
2024-02-29 04:06 pmNNW 6.0 9.9----30.39- 43.9 46.6----
2024-02-29 04:00 pm N 5.1 9.9----30.39-0.04 43.5 46.6----
2024-02-29 03:54 pmNNW 7.0 9.9----30.39- 43.7 46.6----
2024-02-29 03:48 pmNNW 8.0 11.1----30.39- 43.3 46.6----
2024-02-29 03:42 pmNNW 7.0 8.9----30.39- 43.2 46.6----
2024-02-29 03:36 pmNNW 7.0 8.9----30.39- 42.8 46.8----
2024-02-29 03:30 pmNNW 5.1 8.0----30.39- 43.0 46.8----
2024-02-29 03:24 pmNNW 5.1 8.0----30.39- 43.2 46.8----
2024-02-29 03:18 pmNNW 5.1 8.9----30.39- 42.6 46.8----
2024-02-29 03:12 pmNNW 8.0 9.9----30.39- 42.3 46.8----
2024-02-29 03:06 pmNNW 7.0 12.0----30.39- 42.1 46.8----
2024-02-29 03:00 pm N 7.0 9.9----30.39-0.04 41.7 46.8----
2024-02-29 02:54 pmNNW 8.0 12.0----30.39- 41.7 46.8----
2024-02-29 02:48 pmNNW 8.9 11.1----30.39- 41.7 46.8----
2024-02-29 02:42 pmNNW 8.0 11.1----30.39- 41.2 46.6----
2024-02-29 02:36 pm N 9.9 12.0----30.39- 40.8 46.6----
2024-02-29 02:30 pm N 8.9 11.1----30.39- 40.8 46.6----
2024-02-29 02:24 pmNNW 8.9 13.0----30.39- 40.6 46.6----
2024-02-29 02:18 pmNNW 11.1 14.0----30.39- 40.5 46.4----
2024-02-29 02:12 pmNNW 11.1 14.0----30.39- 40.6 46.4----
2024-02-29 02:06 pmNNW 8.9 11.1----30.39- 40.3 46.4----
2024-02-29 02:00 pmNNW 8.0 9.9----30.39-0.05 39.7 46.2----
2024-02-29 01:54 pmNNW 8.0 11.1----30.39- 39.6 46.2----
2024-02-29 01:48 pmNNW 8.0 9.9----30.40- 39.6 46.2----
2024-02-29 01:42 pmNNW 9.9 12.0----30.40- 39.2 46.2----
2024-02-29 01:36 pmNNW 9.9 14.0----30.40- 39.4 46.0----
2024-02-29 01:30 pmNNW 9.9 13.0----30.41- 39.2 46.0----
2024-02-29 01:24 pm N 9.9 12.0----30.41- 39.4 46.0----
2024-02-29 01:18 pmNNW 7.0 13.0----30.42- 39.0 46.0----
2024-02-29 01:12 pmNNW 8.0 12.0----30.42- 38.8 46.0----
2024-02-29 01:06 pmNNW 8.0 12.0----30.42- 38.7 45.9----
2024-02-29 01:00 pmNNW 8.9 14.0----30.42+0.00 38.5 45.9----
2024-02-29 12:54 pmNNW 11.1 14.0----30.43- 38.5 45.7----
2024-02-29 12:48 pmNNW 9.9 13.0----30.43- 38.5 45.7----
2024-02-29 12:42 pmWNW 7.0 13.0----30.43- 38.7 45.5----
2024-02-29 12:36 pm NW 8.9 14.0----30.44- 38.1 45.5----
2024-02-29 12:30 pmNNW 4.1 11.1----30.44- 38.3 45.5----
2024-02-29 12:24 pmWNW 5.1 13.0----30.43- 38.5 45.5----
2024-02-29 12:18 pm NW 7.0 12.0----30.43- 38.1 45.5----
2024-02-29 12:12 pmWNW 8.0 11.1----30.43- 37.9 45.5----
2024-02-29 12:06 pm NW 8.9 13.0----30.43- 37.6 45.3----
2024-02-29 12:00 pm NW 8.0 11.1----30.43+0.00 37.8 45.3----
2024-02-29 11:54 am NW 9.9 14.0----30.43- 37.0 45.1----
2024-02-29 11:48 am NW 9.9 14.0----30.42- 37.0 45.1----
2024-02-29 11:42 am NW 9.9 14.0----30.42- 37.0 45.0----
2024-02-29 11:36 am NW 12.0 17.1----30.43- 36.7 45.0----
2024-02-29 11:30 am NW 12.0 15.9----30.43- 37.2 45.0----
2024-02-29 11:24 am NW 11.1 15.0----30.43- 36.7 45.0----
2024-02-29 11:18 am NW 13.0 18.1----30.43- 36.5 45.0----
2024-02-29 11:12 am NW 14.0 18.1----30.43- 36.5 45.0----
2024-02-29 11:06 am NW 11.1 15.9----30.44- 36.3 45.0----
2024-02-29 11:00 amWNW 12.0 15.0----30.44+0.04 36.0 45.1----
2024-02-29 10:54 am NW 12.0 15.0----30.44- 36.0 45.1----
2024-02-29 10:48 am NW 9.9 19.0----30.44- 36.0 45.1----
2024-02-29 10:42 amNNW 12.0 15.0----30.43- 35.8 45.1----
2024-02-29 10:36 am NW 14.0 19.0----30.43- 35.4 45.0----
2024-02-29 10:30 amWNW 14.0 18.1----30.43- 35.4 45.0----
2024-02-29 10:24 am NW 15.0 18.1----30.42- 35.4 45.0----
2024-02-29 10:18 am NW 11.1 14.0----30.43- 35.4 45.0----
2024-02-29 10:12 am NW 8.0 15.9----30.43- 35.6 44.8----
2024-02-29 10:06 am NW 9.9 18.1----30.43- 36.0 44.8----
2024-02-29 10:00 am NW 14.0 20.0----30.43+0.08 35.4 44.8----
2024-02-29 09:54 am NW 9.9 17.1----30.43- 35.6 44.8----
2024-02-29 09:48 am NW 13.0 18.1----30.43- 35.4 44.8----
2024-02-29 09:42 am NW 15.9 19.0----30.43- 35.4 44.8----
2024-02-29 09:36 am NW 13.0 19.0----30.42- 35.4 44.8----
2024-02-29 09:30 amNNW 15.0 21.0----30.42- 35.6 44.8----
2024-02-29 09:24 am NW 15.0 19.0----30.43- 35.4 44.8----
2024-02-29 09:18 amWNW 9.9 17.1----30.43- 35.4 44.8----
2024-02-29 09:12 amNNW 12.0 17.1----30.42- 35.4 44.8----
2024-02-29 09:06 am NW 9.9 14.0----30.43- 35.6 44.8----
2024-02-29 09:00 am NW 11.1 15.0----30.43+0.10 35.6 44.8----
2024-02-29 08:48 am NW 11.1 18.1----30.43- 35.8 44.8----
2024-02-29 08:42 am NW 11.1 17.1----30.42- 35.8 44.8----
2024-02-29 08:36 am NW 12.0 19.0----30.42- 35.6 44.8----
2024-02-29 08:30 am NW 15.9 20.0----30.42- 35.8 44.8----
2024-02-29 08:24 am NW 14.0 19.0----30.42- 35.8 44.8----
2024-02-29 08:18 am NW 13.0 22.0----30.42- 36.1 44.8----
2024-02-29 08:12 am NW 15.0 24.1----30.41- 36.1 44.8----
2024-02-29 08:06 am NW 19.0 27.0----30.40- 35.8 44.8----
2024-02-29 08:00 am NW 17.1 22.9----30.40+0.13 36.0 44.8----
2024-02-29 07:48 am NW 18.1 25.1----30.39- 35.8 44.8----
2024-02-29 07:42 am NW 15.0 21.0----30.39- 36.0 44.8----
2024-02-29 07:36 amWNW 11.1 20.0----30.39- 36.0 44.8----
2024-02-29 07:30 am NW 13.0 21.0----30.39- 36.0 44.8----
2024-02-29 07:24 am NW 15.9 22.0----30.38- 36.1 44.8----
2024-02-29 07:18 am NW 15.0 19.0----30.37- 36.1 44.8----
2024-02-29 07:12 am NW 15.0 20.0----30.37- 36.1 44.8----
2024-02-29 07:06 am NW 15.0 21.0----30.36- 36.1 44.8----
2024-02-29 07:00 am NW 12.0 20.0----30.35+0.14 36.0 44.8----
2024-02-29 06:48 amWNW 9.9 12.0----30.35- 35.2 44.8----
2024-02-29 06:42 amWNW 8.9 12.0----30.35- 35.6 44.8----
2024-02-29 06:36 am W 7.0 17.1----30.35- 35.6 44.8----
2024-02-29 06:30 am NW 13.0 18.1----30.34- 36.1 44.8----
2024-02-29 06:24 am NW 9.9 14.0----30.34- 36.1 44.8----
2024-02-29 06:18 amWNW 8.9 15.0----30.34- 36.0 44.8----
2024-02-29 06:12 amWNW 8.9 12.0----30.33- 36.1 44.8----
2024-02-29 06:06 am NW 12.0 19.0----30.33- 36.1 44.8----
2024-02-29 06:00 am NW 12.0 19.0----30.32+0.16- 44.8----
2024-02-29 05:48 am NW 17.1 21.0----30.31-- 44.6----
2024-02-29 05:42 am NW 17.1 21.0----30.30- 36.3 44.6----
2024-02-29 05:36 am NW 18.1 22.0----30.30- 36.5 44.4----
2024-02-29 05:30 am NW 15.9 22.0----30.29- 37.0 44.4----
2024-02-29 05:24 am NW 17.1 22.9----30.29- 36.7 44.2----
2024-02-29 05:18 am NW 18.1 22.9----30.29- 36.7 44.2----
2024-02-29 05:12 am NW 20.0 26.0----30.28- 36.9 44.2----
2024-02-29 05:06 am NW 15.9 24.1----30.27- 37.0 44.2----
2024-02-29 05:00 am NW 20.0 26.0----30.27+0.16 37.2 44.2----
2024-02-29 04:54 am NW 18.1 26.0----30.26- 37.4 44.4----
2024-02-29 04:48 am NW 22.0 26.0----30.26- 37.2 44.4----
2024-02-29 04:42 am NW 19.0 26.0----30.25- 37.2 44.2----
2024-02-29 04:36 am NW 17.1 22.9----30.25- 37.4 44.2----
2024-02-29 04:30 am NW 17.1 28.0----30.24- 37.2 44.2----
2024-02-29 04:24 am NW 22.0 28.0----30.24- 37.6 44.2----
2024-02-29 04:12 am NW 22.9 28.0----30.22- 37.8 44.4----
2024-02-29 04:00 am NW 21.0 28.9----30.21+0.14 38.3 44.4----
2024-02-29 03:54 am NW 22.9 32.1----30.21- 38.1 44.6----
2024-02-29 03:42 am NW 19.0 29.9----30.20- 38.7 44.6----
2024-02-29 03:30 am NW 25.1 34.0----30.19- 38.7 44.6----
2024-02-29 03:24 am NW 25.1 33.0----30.18- 39.0 44.6----
2024-02-29 03:12 am NW 22.9 32.1----30.19- 38.8 44.6----
2024-02-29 03:00 am NW 26.0 31.1----30.16+0.14 39.4 44.8----
2024-02-29 02:54 am NW 25.1 32.1----30.16- 39.4 44.8----
2024-02-29 02:42 am NW 24.1 33.0----30.15- 39.9 44.8----
2024-02-29 02:36 am NW 25.1 35.0----30.14- 40.1 44.8----
2024-02-29 02:30 am NW 24.1 32.1----30.14- 40.3 44.8----
2024-02-29 02:18 am NW 24.1 31.1----30.13- 41.0 44.8----
2024-02-29 02:12 am NW 24.1 34.0----30.13- 41.2 45.0----
2024-02-29 02:06 am NW 26.0 32.1----30.12- 41.5 45.0----
2024-02-29 02:00 am NW 24.1 31.1----30.11+0.16 41.7 45.0----
2024-02-29 01:48 am NW 24.1 32.1----30.10- 42.4 45.0----
2024-02-29 01:42 am NW 24.1 32.1----30.10- 42.4 45.0----
2024-02-29 01:36 am NW 24.1 31.1----30.09- 42.6 45.0----
2024-02-29 01:30 am NW 22.0 28.9----30.09- 42.8 45.0----
2024-02-29 01:18 am NW 22.9 31.1----30.08- 43.2 45.0----
2024-02-29 01:12 am NW 24.1 28.9----30.08- 43.5 45.0----
2024-02-29 01:06 am NW 24.1 29.9------------
2024-02-29 01:00 am NW 22.0 29.9----30.08+0.19 44.2 45.0----
2024-02-29 12:54 am NW 21.0 32.1----30.07- 44.4 45.0----
2024-02-29 12:42 am NW 17.1 22.0----30.07- 44.4 45.0----
2024-02-29 12:30 am NW 22.0 29.9----30.05- 45.0 45.1----
2024-02-29 12:24 am NW 27.0 35.0----30.04- 45.1 45.1----
2024-02-29 12:12 am NW 17.1 25.1----30.03- 45.5 45.5----
2024-02-29 12:00 amWNW 18.1 28.0----30.02+0.21 45.5 45.5----
2024-02-28 11:54 pm NW 15.9 26.0----30.02- 45.9 45.5----
2024-02-28 11:48 pm NW 20.0 28.0----30.01- 46.2 45.3----
2024-02-28 11:42 pm NW 25.1 32.1----29.99- 46.4 45.3----
2024-02-28 11:36 pm NW 19.0 27.0----29.99- 46.6 45.3----
2024-02-28 11:30 pm NW 21.0 27.0----29.98- 46.8 45.3----
2024-02-28 11:24 pm NW 25.1 35.0----29.98- 47.1 45.5----
2024-02-28 11:18 pm NW 19.0 31.1----29.98- 47.3 45.5----
2024-02-28 11:12 pm NW 22.9 34.0----29.96- 47.5 45.5----
2024-02-28 11:06 pm NW 24.1 33.0----29.96- 47.7 45.5----
2024-02-28 11:00 pm NW 26.0 36.9----29.95+0.23 48.0 45.5----
2024-02-28 10:54 pm NW 26.0 35.9----29.94- 48.2 45.5----
2024-02-28 10:48 pm NW 25.1 34.0----29.94- 48.4 45.5----
2024-02-28 10:42 pm NW 26.0 36.9----29.94- 48.7 45.7----
2024-02-28 10:36 pm NW 24.1 32.1----29.93- 49.1 45.9----
2024-02-28 10:30 pm NW 22.0 34.0----29.92- 49.3 45.9----
2024-02-28 10:24 pm NW 26.0 35.0----29.92- 49.6 45.9----
2024-02-28 10:18 pm NW 22.9 34.0----29.92- 50.0 45.9----
2024-02-28 10:12 pm NW 26.0 35.0----29.89- 50.5 45.9----
2024-02-28 10:06 pm NW 25.1 35.9----29.89- 50.7 45.9----
2024-02-28 10:00 pm NW 24.1 39.0----29.89+0.17 51.1 45.9----
2024-02-28 09:54 pm NW 25.1 34.0----29.88- 51.4 45.9----
2024-02-28 09:48 pm NW 24.1 32.1----29.87- 51.4 45.9----
2024-02-28 09:42 pm NW 22.0 28.9----29.86- 51.6 45.9----
2024-02-28 09:36 pm NW 21.0 27.0----29.86- 51.8 45.9----
2024-02-28 09:30 pm NW 17.1 25.1----29.85- 51.4 45.9----
2024-02-28 09:24 pm NW 19.0 22.9----29.84- 51.4 45.9----
2024-02-28 09:18 pm NW 22.0 28.0----29.83- 51.1 46.0----
2024-02-28 09:12 pm NW 19.0 28.9----29.83- 51.4 46.0----
2024-02-28 09:06 pm NW 21.0 28.0----29.81- 51.6 46.0----
2024-02-28 09:00 pm NW 20.0 26.0----29.81- 51.8 46.0----
2024-02-28 08:54 pm NW 19.0 29.9----29.79- 52.0 45.9----
2024-02-28 08:48 pm NW 22.0 31.1----29.78- 52.7 45.9----
2024-02-28 08:42 pm NW 19.0 32.1----29.78- 55.0 45.9----
2024-02-28 08:36 pmWNW 13.0 21.0----29.78- 56.5 46.0----
2024-02-28 08:30 pm W 17.1 22.0----29.77- 57.6 46.0----
2024-02-28 08:24 pm W 15.9 33.0----29.76- 58.3 46.0----
2024-02-28 08:18 pm W 15.9 22.0----29.76- 59.2 46.0----
2024-02-28 08:12 pmWSW 8.0 15.0----29.73- 59.9 46.0----
2024-02-28 08:06 pmWSW 7.0 13.0----29.73- 59.7 45.9----
2024-02-28 08:00 pm SW 8.9 14.0----29.72+0.00 59.7 45.9----
2024-02-28 07:54 pm SW 8.0 17.1----29.72- 59.5 45.9----
2024-02-28 07:48 pm SW 8.9 15.9----29.72- 59.4 45.7----
2024-02-28 07:42 pm SW 9.9 17.1----29.72- 59.5 45.5----
2024-02-28 07:36 pm SW 8.9 15.9----29.72- 59.5 45.5----
2024-02-28 07:30 pm SW 8.9 15.9------------
2024-02-28 07:24 pm SW 8.9 15.0----29.73- 59.5 45.5----
2024-02-28 07:18 pm SW 8.9 13.0----29.72- 59.5 45.5----
2024-02-28 07:12 pm SW 8.0 13.0----29.72- 59.4 45.5----
2024-02-28 07:06 pm SW 9.9 17.1----29.72- 59.4 45.7----
2024-02-28 07:00 pm SW 11.1 15.9----29.72+0.00 59.5 45.7----
2024-02-28 06:54 pm SW 12.0 17.1----29.71- 59.7 45.7----